Weather History for KHVN - January, 2013

Change the Weather History Date:

Saturday, January 12, 2013

  Actual Average Record
Temperature  
Mean Temperature 42 °F -  
Max Temperature 46 °F 34 °F 58 °F (1975)
Min Temperature 39 °F 22 °F -1 °F (1981)
Degree Days  
Heating Degree Days 22    
Moisture  
Dew Point 41 °F    
Average Humidity 91    
Maximum Humidity 100    
Minimum Humidity 85    
Precipitation  
Precipitation 0.05 in - - ()
Sea Level Pressure  
Sea Level Pressure 30.14 in    
Wind  
Wind Speed 6 mph (NNE)    
Max Wind Speed 13 mph    
Max Gust Speed -    
Visibility 2 miles    
Events Fog , Rain    
Averages and records for this station are not official NWS values.
T = Trace of Precipitation, MM = Missing Value Source: NWS Daily Summary

Daily Weather History Graph

Daily Weather History Graph

Search for Another Location

Airport or City:

Trip Planner

Search our weather history database for the weather conditions in past years. The results will help you decide how hot, cold, wet, or windy it might be!

Date:

Astronomy

Jan. 12, 2013 Rise Set
Actual Time 7:16 AM EST 4:44 PM EST
Civil Twilight 6:45 AM EST 5:14 PM EST
Nautical Twilight 6:11 AM EST 5:49 PM EST
Astronomical Twilight 5:38 AM EST 6:22 PM EST
Moon 7:31 AM EST (1/12) 6:11 PM EST (1/12)
Length of Visible Light 10h 29m
Length of Day
9h 28m
New Moon, 1% of the Moon is Illuminated
Jan 12
New Moon
Jan 18
First Quarter
Jan 26
Full
Feb 3
Last Quarter
Feb 10
New

Hourly Weather History & Observations

Time (EST) Temp. Windchill Dew Point Humidity Pressure Visibility Wind Dir Wind Speed Gust Speed Precip Events Conditions
12:53 AM 46.0 °F 41.9 °F 44.1 °F 93% 30.12 in 4.0 mi ENE 8.1 mph - N/A   Overcast
1:32 AM 46.4 °F 42.9 °F 44.6 °F 93% 30.12 in 3.0 mi ENE 6.9 mph - N/A   Overcast
1:48 AM 46.4 °F 43.5 °F 44.6 °F 93% 30.12 in 3.0 mi NE 5.8 mph - 0.00 in   Overcast
1:53 AM 46.0 °F 41.9 °F 44.1 °F 93% 30.12 in 4.0 mi NE 8.1 mph - 0.00 in   Overcast
2:08 AM 44.6 °F 39.7 °F 42.8 °F 93% 30.12 in 2.0 mi North 9.2 mph - N/A   Overcast
2:15 AM 42.8 °F 37.5 °F 39.2 °F 87% 30.12 in 1.8 mi North 9.2 mph - 0.00 in Rain Light Rain
2:19 AM 42.8 °F 37.5 °F 39.2 °F 87% 30.12 in 2.0 mi North 9.2 mph - 0.00 in Rain Light Rain
2:35 AM 41.0 °F 35.2 °F 39.2 °F 93% 30.12 in 1.8 mi North 9.2 mph - 0.01 in Rain Light Rain
2:46 AM 41.0 °F 35.8 °F 39.2 °F 93% 30.11 in 2.0 mi North 8.1 mph - 0.02 in Rain Light Rain
2:53 AM 41.0 °F 35.8 °F 39.2 °F 93% 30.11 in 2.0 mi North 8.1 mph - N/A Rain Light Rain
3:53 AM 39.9 °F 35.1 °F 37.9 °F 93% 30.11 in 2.0 mi North 6.9 mph - 0.03 in Rain Light Rain
4:53 AM 39.9 °F 34.5 °F 37.0 °F 89% 30.10 in 2.5 mi North 8.1 mph - 0.02 in Rain Light Rain
5:53 AM 39.0 °F 32.8 °F 37.0 °F 93% 30.12 in 1.5 mi North 9.2 mph - 0.00 in   Overcast
6:13 AM 39.2 °F 33.0 °F 37.4 °F 93% 30.11 in 1.5 mi North 9.2 mph - N/A   Overcast
6:53 AM 39.9 °F 32.5 °F 37.0 °F 89% 30.13 in 1.5 mi North 12.7 mph - N/A   Overcast
7:53 AM 39.9 °F 33.4 °F 37.0 °F 89% 30.15 in 2.5 mi North 10.4 mph - N/A   Overcast
8:53 AM 41.0 °F 35.8 °F 37.9 °F 89% 30.15 in 9.0 mi NNE 8.1 mph - N/A   Overcast
9:53 AM 43.0 °F 38.8 °F 39.9 °F 89% 30.17 in 10.0 mi North 6.9 mph - N/A   Overcast
10:53 AM 44.1 °F 39.0 °F 39.9 °F 85% 30.15 in 8.0 mi NNE 9.2 mph - N/A   Overcast
11:53 AM 45.0 °F 41.2 °F 41.0 °F 86% 30.11 in 10.0 mi NNE 6.9 mph - N/A   Overcast
12:39 PM 44.6 °F 39.7 °F 41.0 °F 87% 30.13 in 2.0 mi North 9.2 mph - N/A   Overcast
12:53 PM 45.0 °F 41.8 °F 42.1 °F 90% 30.13 in 1.0 mi North 5.8 mph - N/A   Overcast
1:53 PM 45.0 °F 41.8 °F 42.1 °F 90% 30.15 in 0.8 mi North 5.8 mph - N/A   Overcast
2:53 PM 45.0 °F 42.6 °F 43.0 °F 93% 30.15 in 0.8 mi North 4.6 mph - N/A   Overcast
3:32 PM 46.4 °F 43.5 °F 42.8 °F 87% 30.15 in 1.2 mi North 5.8 mph - N/A   Overcast
3:53 PM 46.0 °F 43.9 °F 43.0 °F 89% 30.15 in 1.2 mi NNE 4.6 mph - N/A   Overcast
4:26 PM 46.4 °F 43.5 °F 42.8 °F 87% 30.15 in 1.2 mi North 5.8 mph - N/A   Overcast
4:50 PM 44.6 °F 42.2 °F 42.8 °F 93% 30.15 in 1.2 mi NNE 4.6 mph - N/A   Overcast
4:53 PM 45.0 °F 42.6 °F 43.0 °F 93% 30.15 in 1.2 mi North 4.6 mph - N/A   Overcast
5:10 PM 44.6 °F 43.1 °F 42.8 °F 93% 30.16 in 2.0 mi North 3.5 mph - N/A   Overcast
5:21 PM 44.6 °F 43.1 °F 42.8 °F 93% 30.16 in 1.5 mi North 3.5 mph - N/A   Overcast
5:53 PM 45.0 °F - 43.0 °F 93% 30.17 in 1.0 mi Calm Calm - N/A   Overcast
6:48 PM 44.6 °F - 42.8 °F 93% 30.16 in 0.8 mi Calm Calm - N/A   Overcast
6:53 PM 45.0 °F - 43.0 °F 93% 30.17 in 0.8 mi Calm Calm - N/A   Mist
7:53 PM 44.6 °F - 44.6 °F 100% 30.15 in 0.8 mi Calm Calm - N/A   Mist
8:53 PM 45.0 °F - 42.1 °F 90% 30.15 in 0.5 mi Calm Calm - N/A Fog Fog
9:53 PM 45.0 °F - 42.1 °F 90% 30.14 in 0.8 mi Calm Calm - N/A   Mist
10:08 PM 44.6 °F - 42.8 °F 93% 30.14 in 1.0 mi Calm Calm - N/A   Overcast
10:32 PM 44.6 °F - 42.8 °F 93% 30.13 in 3.0 mi Calm Calm - N/A   Overcast
10:53 PM 45.0 °F - 43.0 °F 93% 30.14 in 4.0 mi Calm Calm - N/A   Overcast
11:29 PM 44.6 °F - 42.8 °F 93% 30.14 in 1.8 mi Calm Calm - N/A   Overcast
11:41 PM 44.6 °F - 42.8 °F 93% 30.15 in 0.5 mi Calm Calm - N/A Fog Fog
11:53 PM 44.1 °F - 42.1 °F 93% 30.14 in 0.5 mi Calm Calm - N/A Fog Fog